[[{"header":{"parameterUnit":"m.s-1","parameterCategory":1,"la1":30.2991,"la2":30.254,"lo1":-89.0895,"lo2":-89.0444,"dy":0.0017,"dx":0.0017,"nx":28,"ny":28,"refTime":"2024-02-05T03:00:00:Z","depth":0,"parameterNumber":2,"parameterNumberName":"U-component_of_WINDS"},"data":[0,0,0,0,0,0,0,0,0,0,0,0,0,0,0,0,0,0,0,0,0,0,0,0,0,0,0,0,0,0,0,0,0,0,0,0,0,0,0,0,0,0,0,0,0,0,0,0,0,0,0,0,0,0,0,0,0,0,-0.7295,-0.7295,0,-0.7327,-0.7327,-0.7327,-0.7309,-0.7308,-0.7308,-0.7307,-0.734,-0.7342,-0.7344,0,0,0,0,0,0,0,0,0,0,0,0,0,-0.7219,-0.7221,-0.7295,-0.7295,-0.7296,-0.7327,-0.7327,-0.7328,-0.7309,-0.7308,-0.7307,-0.7306,-0.734,-0.7342,-0.7344,0,0,0,0,0,0,0,0,0,0,0,0,0,-0.7252,-0.7221,-0.7295,-0.7291,-0.729,-0.7327,-0.7327,-0.7328,-0.731,-0.7308,-0.7307,-0.7306,-0.7339,-0.7342,-0.7344,-0.7387,0,0,-0.7352,-0.7353,0,0,0,0,0,0,0,0,-0.725,-0.7255,-0.7291,-0.7291,-0.7291,-0.7313,-0.7313,-0.7348,-0.731,-0.7302,-0.7307,-0.7305,-0.7332,-0.7335,-0.7344,-0.7389,-0.739,-0.7352,-0.7354,-0.7355,-0.7356,0,0,0,0,0,0,0,-0.7248,-0.7253,-0.7308,-0.7291,-0.7291,-0.7287,-0.729,-0.7319,-0.7325,-0.7303,-0.7302,-0.7306,-0.7332,-0.7342,-0.7345,-0.739,-0.7352,-0.7355,-0.7356,-0.7357,-0.7471,-0.7472,0,0,0,0,0,0,-0.7246,-0.7251,-0.7307,-0.7309,-0.7267,-0.729,-0.7293,-0.7307,-0.7324,-0.7325,-0.7307,-0.7305,-0.7338,-0.7342,-0.7346,-0.7397,-0.7355,-0.7357,-0.7359,-0.7469,-0.7471,-0.7473,0,0,0,0,0,0,-0.7244,-0.7251,-0.7305,-0.728,-0.7286,-0.7292,-0.7308,-0.7308,-0.7318,-0.7327,-0.7328,-0.7316,-0.7337,-0.7342,-0.7377,-0.7398,-0.7359,-0.7361,-0.7468,-0.747,-0.7472,-0.7499,0,0,0,0,0,0,-0.7242,-0.725,-0.7267,-0.728,-0.7288,-0.7335,-0.7309,-0.731,-0.7322,-0.732,-0.7336,-0.7337,-0.7337,-0.7373,-0.7379,-0.7401,-0.7363,-0.7466,-0.7469,-0.7471,-0.7497,-0.7502,-0.7507,0,0,0,0,0,-0.724,-0.7274,-0.7268,-0.7274,-0.7308,-0.7337,-0.7341,-0.7339,-0.7324,-0.7341,-0.7346,-0.7336,-0.7394,-0.7377,-0.7384,-0.7406,-0.7464,-0.7468,-0.7471,-0.7494,-0.7501,-0.7507,0,0,0,0,0,0,-0.7263,-0.7275,-0.7269,-0.7308,-0.7321,-0.7334,-0.7354,-0.7347,-0.7365,-0.7362,-0.736,-0.7363,-0.7399,-0.7406,-0.7386,-0.7448,-0.7427,-0.7432,-0.7442,-0.7449,-0.7454,-0.7452,-0.7365,0,0,0,0,0,-0.7273,-0.7295,-0.7304,-0.7338,-0.7345,-0.7349,-0.7361,-0.7358,-0.7372,-0.7378,-0.7386,-0.74,-0.7421,-0.7435,-0.7456,-0.7497,-0.75,-0.7516,-0.7521,-0.7526,-0.753,-0.7552,-0.756,-0.7483,-0.7483,-0.7483,0,0,-0.7293,-0.7303,-0.7317,-0.7343,-0.7353,-0.7376,-0.7353,-0.7379,-0.7396,-0.7382,-0.7415,-0.7421,-0.7436,-0.7474,-0.7492,-0.7481,-0.7552,-0.753,-0.7533,-0.7535,-0.7557,-0.7564,-0.757,-0.7486,-0.7485,-0.7485,0,0,-0.7342,-0.7351,-0.7381,-0.7391,-0.7406,-0.7408,-0.7415,-0.7428,-0.7431,-0.7464,-0.7454,-0.7474,-0.7511,-0.7522,-0.7533,-0.7585,-0.7577,-0.7592,-0.7619,-0.7641,-0.7647,-0.7652,-0.7671,-0.7678,-0.7596,-0.7596,-0.7596,0,-0.7366,-0.74,-0.7397,-0.7422,-0.7434,-0.7422,-0.7451,-0.7462,-0.7483,-0.7491,-0.7479,-0.7525,-0.7534,-0.7575,-0.7587,-0.7596,-0.7604,-0.759,-0.7646,-0.7652,-0.7656,-0.7674,-0.7681,-0.7598,-0.7597,-0.7597,-0.7597,0,-0.7428,-0.7452,-0.7473,-0.7493,-0.7508,-0.7535,-0.7536,-0.7551,-0.7547,-0.755,-0.7583,-0.7594,-0.7616,-0.7625,-0.7622,-0.7665,-0.7658,-0.7646,-0.7625,-0.7665,-0.7682,-0.7689,-0.76,-0.7599,-0.7599,-0.7599,0,0,-0.7494,-0.7511,-0.7519,-0.7528,-0.7543,-0.7561,-0.7588,-0.7609,-0.7622,-0.7636,-0.7659,-0.769,-0.7679,-0.7691,-0.7688,-0.7707,-0.7748,-0.7693,-0.7693,-0.7703,-0.7796,-0.7805,-0.7813,-0.7742,-0.7743,-0.7744,-0.7795,0,-0.7544,-0.759,-0.7588,-0.7632,-0.7653,-0.7641,-0.7665,-0.7677,-0.768,-0.7699,-0.7703,-0.7725,-0.7709,-0.7716,-0.7734,-0.7739,-0.7767,-0.7735,-0.7763,-0.7764,-0.776,-0.7822,-0.7832,-0.7879,-0.7801,-0.7802,-0.7803,0,-0.7609,-0.7625,-0.7671,-0.7682,-0.7691,-0.7712,-0.7731,-0.7749,-0.7762,-0.7763,-0.7776,-0.7771,-0.7798,-0.7775,-0.7813,-0.7791,-0.7803,-0.7807,-0.7808,-0.7811,-0.7786,-0.7827,-0.7894,-0.7901,-0.7813,-0.7812,-0.7812,0,-0.7652,-0.7685,-0.7717,-0.7725,-0.7739,-0.7754,-0.7761,-0.7773,-0.7785,-0.7801,-0.7809,-0.7829,-0.784,-0.7855,-0.7854,-0.7838,-0.7892,-0.787,-0.7894,-0.7894,-0.7906,-0.7906,-0.7977,-0.7913,-0.7913,-0.7913,-0.7913,0,-0.7708,-0.7737,-0.7737,-0.7756,-0.7788,-0.7784,-0.7816,-0.7821,-0.7831,-0.7851,-0.7842,-0.7862,-0.786,-0.7879,-0.7879,-0.791,-0.7915,-0.7917,-0.7916,-0.7918,-0.7917,-0.7925,-0.7922,-0.7915,-0.7914,-0.7914,-0.7914,0,-0.7762,-0.7763,-0.7797,-0.7807,-0.7811,-0.7834,-0.7842,-0.7861,-0.7863,-0.7889,-0.7895,-0.7899,-0.7921,-0.7922,-0.7948,-0.7948,-0.7985,-0.7981,-0.7981,-0.798,-0.8004,-0.8002,-0.8083,-0.8093,-0.8023,-0.8024,-0.8024,0,-0.7799,-0.782,-0.7833,-0.7845,-0.7853,-0.7874,-0.7886,-0.7883,-0.7897,-0.7913,-0.7929,-0.7951,-0.7968,-0.8004,-0.8009,-0.8029,-0.8025,-0.8052,-0.8028,-0.8029,-0.8026,-0.8025,-0.8027,-0.8057,-0.8058,-0.8058,-0.8059,0,-0.7863,-0.7862,-0.788,-0.7898,-0.7913,-0.7928,-0.7941,-0.7952,-0.7951,-0.7966,-0.7989,-0.8002,-0.8028,-0.8049,-0.8068,-0.8075,-0.8067,-0.8066,-0.8073,-0.8075,-0.8074,-0.8075,-0.7994,-0.8065,-0.8064,-0.8064,-0.8063,-0.8063,-0.7909,-0.7927,-0.7939,-0.7959,-0.7969,-0.7981,-0.7999,-0.8003,-0.8022,-0.8042,-0.804,-0.8065,-0.8077,-0.8101,-0.8109,-0.8129,-0.812,-0.8129,-0.8132,-0.8134,-0.8137,-0.807,-0.8132,-0.8132,-0.8132,-0.8132,-0.8132,0,-0.7972,-0.7979,-0.7998,-0.8016,-0.8033,-0.8023,-0.8037,-0.8051,-0.8073,-0.8085,-0.8101,-0.8127,-0.8147,-0.8154,-0.8173,-0.8188,-0.8184,-0.8193,-0.8192,-0.8194,-0.8144,-0.8136,-0.8195,-0.8195,-0.8195,-0.8195,-0.8195,-0.8195,-0.8007,-0.8038,-0.8039,-0.8074,-0.808,-0.8104,-0.8113,-0.8124,-0.8134,-0.8162,-0.8179,-0.8183,-0.8192,-0.8213,-0.8231,-0.8232,-0.824,-0.825,-0.825,-0.8204,-0.8197,-0.8191,-0.8184,-0.8252,-0.8252,-0.8298,-0.8298,-0.8299]},{"header":{"parameterUnit":"m.s-1","parameterCategory":1,"la1":30.2991,"la2":30.254,"lo1":-89.0895,"lo2":-89.0444,"dy":0.0017,"dx":0.0017,"nx":28,"ny":28,"refTime":"2024-02-05T03:00:00:Z","depth":0,"parameterNumber":3,"parameterNumberName":"V-component_of_WINDS"},"data":[0,0,0,0,0,0,0,0,0,0,0,0,0,0,0,0,0,0,0,0,0,0,0,0,0,0,0,0,0,0,0,0,0,0,0,0,0,0,0,0,0,0,0,0,0,0,0,0,0,0,0,0,0,0,0,0,0,0,-7.7933,-7.7933,0,-7.8013,-7.8014,-7.8015,-7.7911,-7.7907,-7.7904,-7.79,-7.7978,-7.7984,-7.7989,0,0,0,0,0,0,0,0,0,0,0,0,0,-7.7687,-7.7692,-7.7932,-7.7934,-7.7935,-7.8013,-7.8014,-7.8015,-7.7912,-7.7907,-7.7903,-7.7898,-7.7977,-7.7983,-7.799,0,0,0,0,0,0,0,0,0,0,0,0,0,-7.7783,-7.7694,-7.7932,-7.7893,-7.789,-7.8012,-7.8014,-7.8015,-7.7913,-7.7907,-7.7901,-7.7896,-7.7974,-7.7983,-7.7991,-7.8155,0,0,-7.8016,-7.802,0,0,0,0,0,0,0,0,-7.7778,-7.7792,-7.7897,-7.7896,-7.7893,-7.7946,-7.7956,-7.8062,-7.7914,-7.7904,-7.79,-7.7893,-7.7972,-7.798,-7.8007,-7.8159,-7.8162,-7.8017,-7.8022,-7.8026,-7.8028,0,0,0,0,0,0,0,-7.7771,-7.7788,-7.7964,-7.7899,-7.7896,-7.787,-7.7877,-7.7975,-7.7968,-7.7904,-7.7897,-7.7908,-7.797,-7.8,-7.8009,-7.8163,-7.8017,-7.8024,-7.8029,-7.8033,-7.8455,-7.846,0,0,0,0,0,0,-7.777,-7.7783,-7.7961,-7.7966,-7.782,-7.7879,-7.7887,-7.7935,-7.7967,-7.7967,-7.7913,-7.7903,-7.7988,-7.7999,-7.8011,-7.8207,-7.8026,-7.8034,-7.8038,-7.8448,-7.8456,-7.8463,0,0,0,0,0,0,-7.7765,-7.7787,-7.7958,-7.7873,-7.7893,-7.7889,-7.7943,-7.7939,-7.7969,-7.7974,-7.7971,-7.7945,-7.7984,-7.7999,-7.8121,-7.8208,-7.8037,-7.8045,-7.8441,-7.8451,-7.8459,-7.8599,0,0,0,0,0,0,-7.7758,-7.7785,-7.7848,-7.7875,-7.7898,-7.8068,-7.7949,-7.7945,-7.7984,-7.7972,-7.8003,-7.8003,-7.7981,-7.8109,-7.8129,-7.8216,-7.8051,-7.8433,-7.8445,-7.8456,-7.8586,-7.8612,-7.8633,0,0,0,0,0,-7.775,-7.7883,-7.7852,-7.7874,-7.7977,-7.8073,-7.8086,-7.8059,-7.7992,-7.8055,-7.8058,-7.8002,-7.8195,-7.8122,-7.8144,-7.8235,-7.8428,-7.8442,-7.8455,-7.8576,-7.8607,-7.8633,0,0,0,0,0,0,-7.7865,-7.7886,-7.7852,-7.7998,-7.8035,-7.8056,-7.8134,-7.8092,-7.8148,-7.8134,-7.8097,-7.8104,-7.8235,-7.8246,-7.8165,-7.8396,-7.83,-7.8319,-7.8384,-7.8414,-7.8437,-7.8431,-7.8058,0,0,0,0,0,-7.7908,-7.7986,-7.7999,-7.8127,-7.8147,-7.8138,-7.8179,-7.8155,-7.8191,-7.8206,-7.8217,-7.8254,-7.8322,-7.8368,-7.8431,-7.8587,-7.8593,-7.8661,-7.8684,-7.8704,-7.8721,-7.8805,-7.8836,-7.8508,-7.8508,-7.8508,0,0,-7.7996,-7.8017,-7.8068,-7.8151,-7.8176,-7.8257,-7.8152,-7.8241,-7.83,-7.8219,-7.8335,-7.8345,-7.8383,-7.8523,-7.8585,-7.8537,-7.8812,-7.8721,-7.8737,-7.8743,-7.8823,-7.8854,-7.8881,-7.8518,-7.8516,-7.8514,0,0,-7.8199,-7.8223,-7.8333,-7.8361,-7.8402,-7.8395,-7.8422,-7.845,-7.8454,-7.857,-7.8511,-7.8581,-7.87,-7.873,-7.876,-7.8977,-7.8928,-7.8998,-7.9121,-7.9204,-7.923,-7.9253,-7.9331,-7.9359,-7.9015,-7.9015,-7.9016,0,-7.8303,-7.8424,-7.8394,-7.8489,-7.8527,-7.8459,-7.857,-7.8598,-7.8657,-7.8685,-7.863,-7.878,-7.88,-7.8947,-7.9,-7.9027,-7.9056,-7.8995,-7.9229,-7.9251,-7.9272,-7.9346,-7.9376,-7.9024,-7.9023,-7.9022,-7.9021,0,-7.8551,-7.8636,-7.8719,-7.8781,-7.8828,-7.8931,-7.8916,-7.8967,-7.8939,-7.8938,-7.9058,-7.9081,-7.9148,-7.9181,-7.9154,-7.9324,-7.9293,-7.9235,-7.9137,-7.9312,-7.9381,-7.9409,-7.9036,-7.9033,-7.903,-7.9028,0,0,-7.8828,-7.8873,-7.8905,-7.8932,-7.8973,-7.9038,-7.9137,-7.9205,-7.925,-7.9293,-7.9376,-7.9479,-7.9425,-7.9461,-7.9436,-7.9509,-7.9681,-7.9441,-7.9441,-7.9486,-7.9871,-7.9916,-7.995,-7.9648,-7.9654,-7.9658,-7.9869,0,-7.9032,-7.9206,-7.9183,-7.9349,-7.9428,-7.9364,-7.9451,-7.9485,-7.9487,-7.9553,-7.9554,-7.9628,-7.9551,-7.9572,-7.9642,-7.9645,-7.9758,-7.9629,-7.9725,-7.9728,-7.9718,-7.9986,-8.0033,-8.0231,-7.9895,-7.99,-7.9903,0,-7.9294,-7.9349,-7.9525,-7.9555,-7.9587,-7.9666,-7.9727,-7.979,-7.9828,-7.9824,-7.9865,-7.9828,-7.9927,-7.9828,-7.9963,-7.9877,-7.9914,-7.9922,-7.9929,-7.9937,-7.9827,-8.0002,-8.0293,-8.0324,-7.9945,-7.9942,-7.9939,0,-7.948,-7.9598,-7.9719,-7.9744,-7.9782,-7.9839,-7.9858,-7.989,-7.9933,-7.9986,-8.0013,-8.0076,-8.0111,-8.016,-8.0141,-8.0071,-8.0282,-8.018,-8.0281,-8.0282,-8.0329,-8.0327,-8.0631,-8.0352,-8.0351,-8.0351,-8.035,0,-7.9711,-7.9821,-7.9803,-7.9878,-7.9999,-7.9971,-8.0091,-8.0102,-8.0131,-8.0206,-8.0154,-8.0225,-8.0195,-8.0264,-8.0249,-8.0365,-8.038,-8.038,-8.0375,-8.0386,-8.0386,-8.041,-8.0396,-8.0359,-8.0357,-8.0355,-8.0354,0,-7.994,-7.9932,-8.006,-8.0087,-8.0096,-8.0185,-8.0207,-8.0276,-8.0275,-8.037,-8.0391,-8.0388,-8.0466,-8.0452,-8.0538,-8.0528,-8.0674,-8.0651,-8.0662,-8.0657,-8.0759,-8.0751,-8.1091,-8.1135,-8.0826,-8.0829,-8.0831,0,-8.0088,-8.0172,-8.0209,-8.0256,-8.028,-8.0356,-8.04,-8.0375,-8.0423,-8.0474,-8.0537,-8.0611,-8.067,-8.0798,-8.0803,-8.0869,-8.0848,-8.0963,-8.0857,-8.0866,-8.0851,-8.0847,-8.0856,-8.0984,-8.0987,-8.099,-8.0993,0,-8.0353,-8.0346,-8.0413,-8.0479,-8.0534,-8.0584,-8.0629,-8.0671,-8.065,-8.0706,-8.0787,-8.0833,-8.0922,-8.0997,-8.1058,-8.1075,-8.1032,-8.1026,-8.1053,-8.1065,-8.1069,-8.107,-8.072,-8.1018,-8.1016,-8.1014,-8.1012,-8.1011,-8.0547,-8.062,-8.0658,-8.0734,-8.0766,-8.081,-8.0877,-8.0885,-8.0952,-8.1024,-8.1005,-8.1097,-8.1133,-8.1212,-8.1237,-8.1307,-8.1265,-8.1304,-8.1314,-8.1324,-8.1337,-8.1057,-8.1318,-8.1317,-8.1317,-8.1316,-8.1316,0,-8.0811,-8.0833,-8.0903,-8.097,-8.103,-8.0984,-8.1032,-8.1085,-8.1168,-8.1206,-8.1265,-8.1359,-8.1431,-8.1442,-8.1511,-8.1566,-8.1547,-8.1585,-8.1581,-8.1586,-8.1371,-8.1341,-8.1599,-8.1599,-8.1599,-8.1598,-8.1598,-8.1598,-8.0955,-8.1076,-8.1073,-8.1209,-8.1229,-8.132,-8.1352,-8.1392,-8.1423,-8.153,-8.1591,-8.1598,-8.1626,-8.1696,-8.1761,-8.1762,-8.179,-8.1836,-8.183,-8.1629,-8.1601,-8.1574,-8.1546,-8.1842,-8.1843,-8.2039,-8.2041,-8.2042]}]]